User: anonymous   Login
Location: Unspecified
(0.0000°N, 0.0000°E)
Time: 08:35:36
(UTC+00:00)
Language:

AO-Echo - Orbit

View from above orbital plane
View from above orbital plane
View from above satellite
View from above satellite

Ground track
Ground track

The orbit data is extracted from the following two-line orbital elements,

1 28375U 04025K   17293.48476361 +.00000027 +00000-0 +21442-4 0  9993
2 28375 098.3648 224.3699 0081297 265.6937 093.4960 14.41859023699872
Epoch (UTC): 20 October 2017 11:38:03
Eccentricity: 0.0081297
inclination: 98.3648°
perigee height: 694 km
apogee height: 810 km
right ascension of ascending node: 224.3699°
argument of perigee: 265.6937°
revolutions per day: 14.41859023
mean anomaly at epoch: 93.4960°
orbit number at epoch: 69987

The dashed part of the orbit path shows where the satellite is in the earth's shadow,  

DLR